| time (UTC) | temp F | wind direction | speed knots | gust knots | rain 1hr in | rain 24hr in | rain mn in | humidity % | barometer mb |
| 20260505100349 | 62 | 257 | 0.0 | 3.5 | 0.00 | 0.00 | 0.00 | 71 | 1010.2 |
| 20260505094821 | 62 | 143 | 0.9 | 2.6 | 0.00 | 0.00 | 0.00 | 71 | 1010.0 |
| 20260505093321 | 62 | 243 | 0.9 | 4.3 | 0.00 | 0.00 | 0.00 | 70 | 1010.0 |
| 20260505091835 | 62 | 224 | 1.7 | 3.5 | 0.00 | 0.00 | 0.00 | 70 | 1009.8 |
| 20260505090333 | 63 | 208 | 1.7 | 6.1 | 0.00 | 0.00 | 0.00 | 70 | 1009.7 |
| 20260505084826 | 63 | 148 | 0.9 | 4.3 | 0.00 | 0.00 | 0.00 | 71 | 1009.9 |
| 20260505083323 | 63 | 200 | 0.0 | 5.2 | 0.00 | 0.00 | 0.00 | 71 | 1009.9 |
| 20260505081838 | 63 | 195 | 0.9 | 6.1 | 0.00 | 0.00 | 0.00 | 71 | 1009.9 |
| 20260505080331 | 63 | 239 | 0.9 | 2.6 | 0.00 | 0.00 | 0.00 | 71 | 1010.0 |
| 20260505074827 | 63 | 74 | 0.9 | 4.3 | 0.00 | 0.00 | 0.00 | 70 | 1009.7 |
| 20260505073340 | 63 | 90 | 1.7 | 3.5 | 0.00 | 0.00 | 0.00 | 70 | 1009.6 |
| 20260505071836 | 63 | 233 | 0.0 | 1.7 | 0.00 | 0.00 | 0.00 | 69 | 1009.6 |
| 20260505070332 | 63 | 243 | 2.6 | 5.2 | 0.00 | 0.00 | 0.00 | 69 | 1009.5 |
| 20260505064829 | 63 | 276 | 0.9 | 4.3 | 0.00 | 0.00 | 0.00 | 68 | 1009.5 |
| 20260505063322 | 63 | 223 | 0.9 | 4.3 | 0.00 | 0.00 | 0.00 | 68 | 1009.5 |
| 20260505061836 | 64 | 200 | 0.0 | 4.3 | 0.00 | 0.00 | 0.00 | 68 | 1009.6 |
| 20260505060332 | 64 | 256 | 1.7 | 3.5 | 0.00 | 0.00 | 0.00 | 68 | 1009.7 |
| 20260505054826 | 64 | 319 | 1.7 | 3.5 | 0.00 | 0.00 | 0.00 | 68 | 1009.6 |
| 20260505053323 | 64 | 212 | 1.7 | 3.5 | 0.00 | 0.00 | 0.00 | 68 | 1009.6 |
| 20260505051838 | 65 | 117 | 1.7 | 4.3 | 0.00 | 0.00 | 0.00 | 67 | 1009.7 |
| 20260505050335 | 65 | 40 | 0.9 | 4.3 | 0.00 | 0.00 | 0.00 | 67 | 1009.6 |
| 20260505040332 | 66 | 293 | 0.9 | 3.5 | 0.00 | 0.00 | 0.00 | 67 | 1009.8 |
| 20260505034828 | 66 | 356 | 1.7 | 5.2 | 0.00 | 0.00 | 0.00 | 67 | 1009.7 |
| 20260505033341 | 66 | 177 | 2.6 | 4.3 | 0.00 | 0.00 | 0.00 | 67 | 1009.7 |
| 20260505031838 | 67 | 210 | 0.9 | 7.8 | 0.00 | 0.00 | 0.00 | 67 | 1009.6 |
| 20260505030333 | 67 | 120 | 0.9 | 4.3 | 0.00 | 0.00 | 0.00 | 67 | 1009.5 |
| 20260505024830 | 67 | 347 | 1.7 | 4.3 | 0.00 | 0.00 | 0.00 | 67 | 1009.5 |
| 20260505023322 | 68 | 18 | 0.9 | 4.3 | 0.00 | 0.00 | 0.00 | 67 | 1009.3 |
| 20260505021840 | 68 | 39 | 1.7 | 3.5 | 0.00 | 0.00 | 0.00 | 67 | 1009.2 |
| 20260505020332 | 68 | 11 | 1.7 | 4.3 | 0.00 | 0.00 | 0.00 | 67 | 1009.1 |
| 20260505014827 | 68 | 198 | 0.0 | 4.3 | 0.00 | 0.00 | 0.00 | 67 | 1009.1 |
| 20260505013324 | 69 | 135 | 0.0 | 3.5 | 0.00 | 0.00 | 0.00 | 66 | 1009.0 |
| 20260505011858 | 69 | 313 | 0.9 | 2.6 | 0.00 | 0.00 | 0.00 | 64 | 1008.9 |
| 20260505010334 | 70 | 198 | 0.0 | 1.7 | 0.00 | 0.00 | 0.00 | 59 | 1008.7 |
| 20260505004828 | 71 | 168 | 0.0 | 0.0 | 0.00 | 0.00 | 0.00 | 49 | 1008.4 |
| 20260505003325 | 71 | 24 | 0.0 | 0.9 | 0.00 | 0.00 | 0.00 | 46 | 1008.2 |
| 20260505001841 | 72 | 25 | 0.0 | 0.9 | 0.00 | 0.00 | 0.00 | 46 | 1008.1 |
| 20260505000334 | 73 | 22 | 0.0 | 1.7 | 0.00 | 0.00 | 0.00 | 45 | 1007.9 |
| 20260504234835 | 74 | 23 | 0.0 | 0.9 | 0.00 | 0.00 | 0.00 | 44 | 1007.8 |
| 20260504233331 | 74 | 8 | 0.0 | 0.9 | 0.00 | 0.00 | 0.00 | 43 | 1007.4 |
| 20260504231829 | 75 | 32 | 0.0 | 0.9 | 0.00 | 0.00 | 0.00 | 43 | 1007.4 |
| 20260504230341 | 76 | 112 | 0.0 | 1.7 | 0.00 | 0.00 | 0.00 | 42 | 1007.5 |
| 20260504224839 | 76 | 17 | 0.0 | 2.6 | 0.00 | 0.00 | 0.00 | 41 | 1007.5 |
| 20260504223332 | 77 | 70 | 0.0 | 3.5 | 0.00 | 0.00 | 0.00 | 40 | 1007.5 |
| 20260504221832 | 77 | 18 | 1.7 | 4.3 | 0.00 | 0.00 | 0.00 | 39 | 1007.5 |
| 20260504220325 | 77 | 162 | 0.9 | 1.7 | 0.00 | 0.00 | 0.00 | 38 | 1007.5 |
| 20260504214821 | 78 | 87 | 0.9 | 3.5 | 0.00 | 0.00 | 0.00 | 38 | 1007.7 |
| 20260504213337 | 78 | 110 | 0.9 | 3.5 | 0.00 | 0.00 | 0.00 | 37 | 1007.8 |
| 20260504211853 | 78 | 347 | 1.7 | 4.3 | 0.00 | 0.00 | 0.00 | 36 | 1007.8 |
| 20260504210330 | 79 | 250 | 1.7 | 4.3 | 0.00 | 0.00 | 0.00 | 36 | 1007.7 |
| 20260504204903 | 79 | 185 | 0.9 | 4.3 | 0.00 | 0.00 | 0.00 | 35 | 1007.7 |
| 20260504203355 | 80 | 337 | 0.9 | 4.3 | 0.00 | 0.00 | 0.00 | 35 | 1007.9 |
| 20260504201830 | 81 | 129 | 0.0 | 3.5 | 0.00 | 0.00 | 0.00 | 34 | 1007.9 |
| 20260504200322 | 81 | 153 | 0.0 | 2.6 | 0.00 | 0.00 | 0.00 | 36 | 1007.9 |
| 20260504194841 | 80 | 105 | 0.9 | 8.7 | 0.00 | 0.00 | 0.00 | 37 | 1008.2 |
| 20260504193335 | 80 | 63 | 0.0 | 3.5 | 0.00 | 0.00 | 0.00 | 38 | 1008.5 |
| 20260504191833 | 79 | 21 | 0.9 | 4.3 | 0.00 | 0.00 | 0.00 | 39 | 1008.6 |
| 20260504190346 | 79 | 152 | 0.9 | 4.3 | 0.00 | 0.00 | 0.00 | 40 | 1008.9 |
| 20260504184837 | 77 | 328 | 0.0 | 3.5 | 0.00 | 0.00 | 0.00 | 42 | 1009.2 |
| 20260504183336 | 77 | 214 | 0.9 | 4.3 | 0.00 | 0.00 | 0.00 | 39 | 1009.5 |
| 20260504181829 | 77 | 352 | 0.9 | 4.3 | 0.00 | 0.00 | 0.00 | 40 | 1009.5 |
| 20260504180324 | 77 | 274 | 1.7 | 6.1 | 0.00 | 0.00 | 0.00 | 41 | 1009.6 |
| 20260504174838 | 77 | 204 | 0.9 | 6.1 | 0.00 | 0.00 | 0.00 | 42 | 1009.6 |
| 20260504173335 | 77 | 1 | 1.7 | 8.7 | 0.00 | 0.00 | 0.00 | 43 | 1009.8 |
| 20260504171828 | 77 | 48 | 2.6 | 3.5 | 0.00 | 0.00 | 0.00 | 42 | 1010.0 |
| 20260504170342 | 76 | 290 | 1.7 | 4.3 | 0.00 | 0.00 | 0.00 | 44 | 1010.0 |
| 20260504160322 | 73 | 348 | 2.6 | 4.3 | 0.00 | 0.00 | 0.00 | 50 | 1010.9 |
| 20260504150327 | 68 | 347 | 0.9 | 5.2 | 0.00 | 0.00 | 0.00 | 55 | 1011.2 |
| 20260504140331 | 64 | 131 | 0.0 | 3.5 | 0.00 | 0.00 | 0.00 | 62 | 1011.6 |
| 20260504130329 | 60 | 44 | 0.9 | 5.2 | 0.00 | 0.00 | 0.00 | 70 | 1011.7 |
| 20260504110327 | 54 | 107 | 0.0 | 0.0 | 0.00 | 0.00 | 0.00 | 74 | 1012.1 |